(413211) = 2003 GD28

Discovered at Socorro on 2003-04-07 by LINEAR.

Orbit

Orbit type: Main Belt

Note: WebGL enabled browser required.

epoch2023-09-13.0
epoch JD2460200.5
perihelion date2023-02-14.16073
perihelion JD2459989.66073
argument of perihelion (°)258.47120
ascending node (°)358.59335
inclination (°)6.63606
eccentricity0.1144488
perihelion distance (AU)1.9374496
Tisserand w.r.t. Jupiter3.7
ΔV w.r.t. Earth (km/sec)8.8
semimajor axis (AU)2.1878460
mean anomaly (°)64.21407
mean daily motion (°/day)0.30456410
aphelion distance (AU)2.438
period (years)3.24
P-vector [x]-0.22369216
P-vector [y]-0.84313727
P-vector [z]-0.48895947
Q-vector [x]0.97465572
Q-vector [y]-0.19496604
Q-vector [z]-0.10970175
absolute magnitude17.48
phase slope0.15
uncertainty0
referenceMPEC 2024-A48
observations used383
oppositions12
arc length (days)7491
first opposition used2003
last opposition used2023
residual rms (arc-secs)0.72
perturbers coarse indicatorM-v
perturbers precise indicator003Ek
first observation date used2003-03-31.0
last observation date used2023-10-03.0
computer nameMPCLINUX
Minimum Orbit Intersection Distances (in AU)
for orbit epoch: 2460200.5, reference: E2024-A48
Mercury1.47164
Venus1.21845
Earth0.93539
Mars0.42301
Jupiter2.61489
Saturn6.64885
Uranus16.2295
Neptune27.4771

Observations

387 total observations over interval: 2003 03 31.36570 – 2023 10 03.282087
These data are available for download (format description).

Date (UT) J2000 RA J2000 Dec Magn Location Ref
2003 03 31.36570 13 08 09.77 -11 12 22.6 18.8   704 – Lincoln Laboratory ETS, New Mexico MPS 180968
2003 03 31.37716 13 08 08.97 -11 12 21.5 19.3   704 – Lincoln Laboratory ETS, New Mexico MPS 180968
2003 03 31.38864 13 08 08.22 -11 12 19.8 19.3   704 – Lincoln Laboratory ETS, New Mexico MPS 180968
2003 04 07.30890 13 00 29.14 -11 02 12.8 19.1   704 – Lincoln Laboratory ETS, New Mexico MPS 76496
2003 04 07.32108 13 00 28.22 -11 02 12.2 19.0   704 – Lincoln Laboratory ETS, New Mexico MPS 76496
2003 04 07.33323 13 00 27.43 -11 02 10.5 19.0   704 – Lincoln Laboratory ETS, New Mexico MPS 76496
2003 04 08.32813 12 59 20.02 -11 00 18.8 19.7 V 691 – Steward Observatory, Kitt Peak-Spacewatch MPS 76496
2003 04 08.35519 12 59 18.11 -11 00 16.2 19.7 V 691 – Steward Observatory, Kitt Peak-Spacewatch MPS 76496
2003 04 08.38258 12 59 16.17 -11 00 13.0 19.6 V 691 – Steward Observatory, Kitt Peak-Spacewatch MPS 76496
2006 01 23.40989 11 09 19.35 +11 27 11.0 20.7 V 691 – Steward Observatory, Kitt Peak-Spacewatch MPS 180968
2006 01 23.42710 11 09 18.96 +11 27 12.9 20.7 V 691 – Steward Observatory, Kitt Peak-Spacewatch MPS 180968
2006 01 23.44437 11 09 18.54 +11 27 14.3 20.7 V 691 – Steward Observatory, Kitt Peak-Spacewatch MPS 180968
2006 02 01.43398 11 04 52.69 +11 45 29.2 20.4 V 691 – Steward Observatory, Kitt Peak-Spacewatch MPS 180968
2006 02 01.45127 11 04 51.98 +11 45 31.7 20.7 V 691 – Steward Observatory, Kitt Peak-Spacewatch MPS 180968
2006 02 01.46865 11 04 51.27 +11 45 34.3 20.6 V 691 – Steward Observatory, Kitt Peak-Spacewatch MPS 180968
2006 02 20.35066 10 47 49.99 +12 47 25.6 20.1 V 703 – Catalina Sky Survey MPS 180968
2006 02 20.35706 10 47 49.59 +12 47 27.6 20.1 V 703 – Catalina Sky Survey MPS 180968
2006 02 20.36347 10 47 49.16 +12 47 28.6 20.1 V 703 – Catalina Sky Survey MPS 180968
2006 02 20.36990 10 47 48.66 +12 47 29.9 20.6 V 703 – Catalina Sky Survey MPS 180968
2006 03 03.23253 10 35 20.32 +13 22 56.4 19.3 R 699 – Lowell Observatory-LONEOS MPS 180968
2006 03 03.25810 10 35 18.65 +13 23 01.4   699 – Lowell Observatory-LONEOS MPS 180968
2006 03 03.29133 10 35 16.15 +13 23 05.3   699 – Lowell Observatory-LONEOS MPS 180968
2006 03 03.31844 10 35 14.25 +13 23 10.0   699 – Lowell Observatory-LONEOS MPS 180968
2006 05 04.13400 10 11 08.44 +11 22 29.9 21.2 V G96 – Mt. Lemmon Survey MPS 180968
2006 05 04.14165 10 11 08.66 +11 22 27.1 21.1 V G96 – Mt. Lemmon Survey MPS 180968
2006 05 04.14920 10 11 09.02 +11 22 23.5 19.6 V G96 – Mt. Lemmon Survey MPS 180968
2006 05 04.15682 10 11 09.16 +11 22 22.0 20.0 V G96 – Mt. Lemmon Survey MPS 180968
2006 05 24.18738 10 27 25.66 +08 51 19.8 21.8 V G96 – Mt. Lemmon Survey MPS 180968
2006 05 24.19194 10 27 25.95 +08 51 17.4 21.5 V G96 – Mt. Lemmon Survey MPS 180968
2006 05 24.19650 10 27 26.24 +08 51 14.8 22.5 V G96 – Mt. Lemmon Survey MPS 180968
2006 05 24.20101 10 27 26.49 +08 51 12.3 21.4 V G96 – Mt. Lemmon Survey MPS 180968
2007 09 13.23264 23 58 05.73 -01 05 05.9 19.7   704 – Lincoln Laboratory ETS, New Mexico MPS 216114
2007 09 13.24422 23 58 04.88 -01 05 09.1 19.7   704 – Lincoln Laboratory ETS, New Mexico MPS 216114
2007 09 13.26741 23 58 03.38 -01 05 13.2 20.1   704 – Lincoln Laboratory ETS, New Mexico MPS 216114
2007 10 04.25854 23 35 43.72 -02 04 21.6 20.0 V G96 – Mt. Lemmon Survey MPS 218072
2007 10 04.26590 23 35 43.33 -02 04 22.5 20.1 V G96 – Mt. Lemmon Survey MPS 218073
2007 10 04.27318 23 35 42.86 -02 04 23.4 20.2 V G96 – Mt. Lemmon Survey MPS 218073
2007 10 04.28045 23 35 42.46 -02 04 24.4 20.2 V G96 – Mt. Lemmon Survey MPS 218073
2007 10 20.08661 23 24 05.86 -02 24 16.2 21.2 V G96 – Mt. Lemmon Survey MPS 222457
2007 10 20.09220 23 24 05.68 -02 24 16.1 20.9 V G96 – Mt. Lemmon Survey MPS 222457
2007 10 20.09768 23 24 05.50 -02 24 16.3 20.0 V G96 – Mt. Lemmon Survey MPS 222457
2007 10 20.10321 23 24 05.36 -02 24 16.1 20.2 V G96 – Mt. Lemmon Survey MPS 222457
2007 11 11.08586 23 20 37.60 -01 51 34.9 21.1 V G96 – Mt. Lemmon Survey MPS 226781
2007 11 11.09247 23 20 37.68 -01 51 33.6 21.0 V G96 – Mt. Lemmon Survey MPS 226781
2007 11 11.09915 23 20 37.71 -01 51 32.1 21.0 V G96 – Mt. Lemmon Survey MPS 226781
2007 11 11.10586 23 20 37.82 -01 51 31.2 20.9 V G96 – Mt. Lemmon Survey MPS 226781
2010 08 03.455851 21 27 46.975 -24 49 38.29 19.53 r F51 – Pan-STARRS 1, Haleakala MPS 365447
2010 08 03.466916 21 27 46.185 -24 49 39.53 19.48 r F51 – Pan-STARRS 1, Haleakala MPS 365447
2010 09 06.330498 20 55 09.356 -24 11 57.21 20.62 g F51 – Pan-STARRS 1, Haleakala MPS 365447
2010 09 06.342295 20 55 08.951 -24 11 54.52 20.45 g F51 – Pan-STARRS 1, Haleakala MPS 365447
2011 11 24.46832 06 53 56.826 +33 01 00.81 21.0 w F51 – Pan-STARRS 1, Haleakala MPS 401073
2011 11 24.49649 06 53 55.813 +33 01 07.53 21.2 w F51 – Pan-STARRS 1, Haleakala MPS 401073
2011 11 24.51066 06 53 55.317 +33 01 11.18 21.0 w F51 – Pan-STARRS 1, Haleakala MPS 401073
2014 10 31.41860 04 41 17.01 +31 21 10.3 20.6 V G96 – Mt. Lemmon Survey MPS 542204
2014 10 31.42319 04 41 16.78 +31 21 11.0 20.5 V G96 – Mt. Lemmon Survey MPS 542204
2014 10 31.42778 04 41 16.54 +31 21 11.7 20.5 V G96 – Mt. Lemmon Survey MPS 542204
2014 10 31.43236 04 41 16.34 +31 21 12.3 20.4 V G96 – Mt. Lemmon Survey MPS 542204
2014 11 01.39643 04 40 30.93 +31 23 33.3 20.5 V G96 – Mt. Lemmon Survey MPS 544283
2014 11 01.39906 04 40 30.83 +31 23 33.4 21.2 V G96 – Mt. Lemmon Survey MPS 544283
2014 11 01.40169 04 40 30.70 +31 23 33.9 20.4 V G96 – Mt. Lemmon Survey MPS 544283
2014 11 01.40565 04 40 30.39 +31 23 34.6 21.3 V G96 – Mt. Lemmon Survey MPS 544283
2014 11 24.31831 04 15 13.01 +31 37 07.8 21.0 V G96 – Mt. Lemmon Survey MPS 549611
2014 11 24.32442 04 15 12.49 +31 37 06.8 21.1 V G96 – Mt. Lemmon Survey MPS 549611
2014 11 24.33056 04 15 12.01 +31 37 06.4 20.0 V G96 – Mt. Lemmon Survey MPS 549611
2014 11 27.34607 04 11 17.693 +31 32 03.43 20.5 w F51 – Pan-STARRS 1, Haleakala MPS 551535
2014 11 27.35996 04 11 16.573 +31 32 01.93 20.5 w F51 – Pan-STARRS 1, Haleakala MPS 551535
2014 11 27.37378 04 11 15.465 +31 32 00.44 20.6 w F51 – Pan-STARRS 1, Haleakala MPS 551535
2014 11 27.38764 04 11 14.353 +31 31 58.81 20.5 w F51 – Pan-STARRS 1, Haleakala MPS 551535
2014 12 01.31401 04 06 10.576 +31 23 02.50 20.4 i F51 – Pan-STARRS 1, Haleakala MPS 551535
2014 12 01.32598 04 06 09.644 +31 23 00.92 20.4 i F51 – Pan-STARRS 1, Haleakala MPS 551535
2014 12 01.33791 04 06 08.697 +31 22 59.24 20.4 i F51 – Pan-STARRS 1, Haleakala MPS 551535
2014 12 01.34989 04 06 07.748 +31 22 57.32 20.4 i F51 – Pan-STARRS 1, Haleakala MPS 551535
2014 12 20.39208 03 44 58.730 +30 13 13.60 20.9 w F51 – Pan-STARRS 1, Haleakala MPS 560002
2014 12 20.40422 03 44 58.058 +30 13 10.41 21.0 w F51 – Pan-STARRS 1, Haleakala MPS 560003
2014 12 20.41632 03 44 57.402 +30 13 07.15 20.9 w F51 – Pan-STARRS 1, Haleakala MPS 560003
2014 12 20.42845 03 44 56.749 +30 13 03.96 21.0 w F51 – Pan-STARRS 1, Haleakala MPS 560003
2014 12 21.90241 03 43 42.62 +30 06 40.8 20.7 V I93 – St Pardon de Conques MPS 560003
2014 12 21.91424 03 43 42.03 +30 06 37.9 20.6 V I93 – St Pardon de Conques MPS 560003
2014 12 21.92606 03 43 41.46 +30 06 35.4 20.4 V I93 – St Pardon de Conques MPS 560003
2016 03 10.53920 14 05 35.550 -16 03 07.72 20.3 w F51 – Pan-STARRS 1, Haleakala MPS 692486
2016 03 10.55110 14 05 35.396 -16 03 11.10 20.3 w F51 – Pan-STARRS 1, Haleakala MPS 692486
2016 03 10.56305 14 05 35.244 -16 03 14.31 20.3 w F51 – Pan-STARRS 1, Haleakala MPS 692486
2016 03 10.57498 14 05 35.100 -16 03 17.67 20.3 w F51 – Pan-STARRS 1, Haleakala MPS 692486
2016 03 16.49617 14 03 59.860 -16 28 27.01 20.1 w F51 – Pan-STARRS 1, Haleakala MPS 695826
2016 03 16.50790 14 03 59.564 -16 28 29.87 20.1 w F51 – Pan-STARRS 1, Haleakala MPS 695826
2016 03 16.51961 14 03 59.263 -16 28 32.53 20.1 w F51 – Pan-STARRS 1, Haleakala MPS 695826
2016 03 16.53126 14 03 58.963 -16 28 35.14 20.1 w F51 – Pan-STARRS 1, Haleakala MPS 695826
2016 03 18.40872 14 03 12.68 -16 35 30.1 20.4 V 691 – Steward Observatory, Kitt Peak-Spacewatch MPS 695826
2016 03 18.41561 14 03 12.47 -16 35 31.6 20.4 V 691 – Steward Observatory, Kitt Peak-Spacewatch MPS 695826
2016 03 18.42249 14 03 12.26 -16 35 33.0 20.3 V 691 – Steward Observatory, Kitt Peak-Spacewatch MPS 695826
2016 04 02.29147 13 52 53.19 -17 09 59.8 20.4 V 703 – Catalina Sky Survey MPS 701062
2016 04 02.29414 13 52 53.12 -17 09 59.4 19.8 r G45 – Space Surveillance Telescope, Atom Site MPS 701062
2016 04 02.29475 13 52 53.03 -17 09 59.1 19.6 r G45 – Space Surveillance Telescope, Atom Site MPS 701062
